Regional Weather Roundup
Issued by NWS Upton, NY

Current Version | Previous Version | Graphics & Text | Print | Product List | Glossary Off
Versions: 1 2 3 4 5 6 7 8 9 10 11 12 13 14 15 16 17 18 19 20 21 22 23 24 25 26 27

000
ASUS41 KOKX 230608
RWROKX

REGIONAL WEATHER ROUNDUP
NATIONAL WEATHER SERVICE NEW YORK NY
100 AM EST THU FEB 23 2017

NOTE: "FAIR" INDICATES FEW OR NO CLOUDS BELOW 12,000 FEET WITH NO
SIGNIFICANT WEATHER AND/OR OBSTRUCTIONS TO VISIBILITY.

NYZ071-072-176-178-NJZ106-104-230700-
NEW YORK CITY METRO AREA

CITY           SKY/WX    TMP DP  RH WIND       PRES   REMARKS
Central Park   PTCLDY    52  42  69 CALM      29.90S
Wall St Helipt NOT AVBL
LaGuardia APRT NOT AVBL
Kennedy INTL   MOCLDY    42  41  96 SW3       29.90S
Breezy Point     N/A     43 N/A N/A SW2         N/A
Newark/Liberty PTCLDY    48  42  80 S6        29.88S
Teterboro      CLEAR     44  38  79 CALM      29.88R
$$

NYZ177-179-078>081-230700-
LONG ISLAND NEW YORK

CITY           SKY/WX    TMP DP  RH WIND       PRES   REMARKS
Jones Beach      N/A     41 N/A N/A S1          N/A
Matinecock PT  NOT AVBL
Farmingdale    PTCLDY    39  38  96 S3        29.89F FOG
MacArthur/ISP  NOT AVBL
Shirley        NOT AVBL
Westhampton    FOG       41  41 100 CALM      29.92R VSB 1/4
Southampton    NOT AVBL
Bridgehampton  NOT AVBL
East Hampton   FOG       40  40  99 CALM      29.90S VSB 1/4
Montauk          N/A     42  42 100 CALM      29.91F
$$

NYZ052-065-067-230700-
HUDSON VALLEY

CITY           SKY/WX    TMP DP  RH WIND       PRES   REMARKS
White Plains   CLEAR     39  35  86 NW3       29.87S
Newburgh       PTCLDY    41  37  87 CALM      29.88S
Montgomery     PTCLDY    35  33  92 S3        29.87R
Poughkeepsie   CLOUDY    38  35  89 CALM      29.87S
Albany         CLOUDY    44  36  73 S3        29.86R
$$

NJZ001-105-106-008-010-013-015-019>022-104-230700-
NEW JERSEY

CITY           SKY/WX    TMP DP  RH WIND       PRES   REMARKS
Newark/Liberty PTCLDY    48  42  80 S6        29.88S
Teterboro      CLEAR     44  38  79 CALM      29.88R
Caldwell       CLEAR     40  37  89 CALM      29.90R
Somerville     CLEAR     36  33  89 CALM      29.88S
Linden         NOT AVBL
Sussex         CLEAR     34  33  96 CALM      29.88S
Andover          N/A     35  33  92 CALM      29.89R
Trenton        CLEAR     45  42  89 SW3       29.90S
Millville      NOT AVBL
Atlantic City  NOT AVBL
Wrightstown    CLEAR     45  43  93 SW3       29.88S
Toms River     FOG       38  37  97 CALM      29.91S VSB 1/4
Belmar         NOT AVBL
$$

PAZ047>061-062-071-230700-
EASTERN PENNSYLVANIA

CITY           SKY/WX    TMP DP  RH WIND       PRES   REMARKS
Philadelphia   MOCLDY    45  42  89 CALM      29.91S FOG
Allentown      CLEAR     40  35  83 CALM      29.89S
Scranton       NOT AVBL
$$

CTZ002-004>006-009-010-012-RIZ004-006-007-MAZ004-011-015-230700-
SOUTHERN NEW ENGLAND
 IN CT

CITY           SKY/WX    TMP DP  RH WIND       PRES   REMARKS
Bradley INTL   PTCLDY    38  35  89 CALM      29.88R
Hartford       CLEAR     37  34  89 CALM      29.88S
Danbury        NOT AVBL
Wtrbury/Oxford CLOUDY    43  36  75 CALM      29.89S
Bridgeport     NOT AVBL
Meriden        MOCLDY    36  32  85 CALM      29.88F
New Haven      NOT AVBL
Chester          N/A     39  37  93 S3        29.88F
Groton         PTCLDY    34  33  96 CALM      29.90S FOG
Wilimantic     PTCLDY    34  31  88 NE3       29.90S

 IN RI

CITY           SKY/WX    TMP DP  RH WIND       PRES   REMARKS
Providence     CLEAR     37  35  92 S3        29.89F
Block Island   NOT AVBL
Westerly       FOG       36  32  85 CALM      29.92R VSB 1/4
 IN MA

CITY           SKY/WX    TMP DP  RH WIND       PRES   REMARKS
Boston         MOCLDY    41  38  89 SW5       29.88S
Worcester      CLEAR     42  34  73 W7        29.85S
Westfield      MOCLDY    32  31  96 CALM      29.87S
Provincetown   CLEAR     39  38  96 S10       29.89F WCI  32
Nantucket      CLOUDY    40  39  97 SW6       29.91S
$$

ANZ330-335-338-340-345-350-353-355-230700-
COASTAL MARINE OBSERVATIONS


STATION/POSITION TIME  SKY/WX   TEMP    WIND        PRES    VSBY  WAVE
                                AIR SEA DIR/SP/G                  HT/PER
                 (UTC)          (F)     (DEG/KT/KT) (MB)    (MI)  (FT/S)
NY HARB ENTRANCE 0450            44 42  210/  6/  8 1012.0          2/ 8
20 S FIRE ISLAND 0550            44 43  210/ 10/ 12 1012.4          3/10
GREAT SOUTH BAY  NOT AVBL
23 SSW MONTAUK P 0450            46 45              1013.3          3/11
15 E BARNEGAT LI 0530               42                N/A           3/ 9
HUDSON CANYON    0450               49              1013.4          4/11
KINGS POINT      0536            44 39              1011.9
EXECUTION ROCKS  NOT AVBL
CENTRAL LI SOUND 0530            40      CALM  /  2   N/A           0
EASTERN LI SOUND NOT AVBL
ROBBINS REEF     0536            51     220/  5/  7 1012.2
$$


>>>>>>>>>>>>>>>>>>>>>>>>>>>> KEY <<<<<<<<<<<<<<<<<<<<<<<<<<<
>                                                          <
>     SKY/WX - Sky Condition/Present Weather               <
>     TMP    - Temperature in Fahrenheit                   <
>     DP     - Dew Point in Fahrenheit                     <
>     RH     - Relative Humidity in Percent                <
>     WIND   - Direction (from) and Speed in MPH           <
>     PRES   - Mean Sea Level Pressure (inches of Hg)      <
>     WCI    - Wind Chill Index                            <
>     VSB    - VISIBILITY IN MILES                         <
>     HX     - HEAT INDEX                                  <
>     TC     - TEMPERATURE IN CELSIUS                      <
>     VRB    - VARIABLE WIND DIRECTION                     <
>                                                          <
>>>>>>>>>>>>>>>>>>>>>>>>>>>> KEY <<<<<<<<<<<<<<<<<<<<<<<<<<<




USA.gov is the U.S. government's official web portal to all federal, state and local government web resources and services.